Date,TemperatureHighF,TemperatureAvgF,TemperatureLowF,DewpointHighF,DewpointAvgF,DewpointLowF,HumidityHigh,HumidityAvg,HumidityLow,PressureMaxIn,PressureMinIn,WindSpeedMaxMPH,WindSpeedAvgMPH,GustSpeedMaxMPH,PrecipitationSumIn
2013-1-3,29,28,25,26,23,16,86,80,68,0.00,40.00,11,7,20,0.00
2013-1-4,29,29,28,23,22,22,76,75,74,0.00,40.00,9,7,16,0.00
2013-1-9,47,42,33,35,30,23,72,61,50,0.00,40.00,15,8,25,0.00
2013-1-10,42,39,37,35,32,28,93,75,58,0.00,40.00,11,6,15,0.00
2013-1-11,59,50,36,54,46,34,98,86,72,0.00,40.00,12,5,21,0.00
2013-1-12,50,49,49,48,47,47,93,93,93,0.00,40.00,6,3,12,0.00
2013-1-14,28,25,21,18,17,16,86,70,62,0.00,40.00,6,2,9,0.00
2013-1-15,20,18,17,18,17,16,94,92,87,0.00,40.00,1,0,3,0.00
2013-2-21,27,23,21,18,16,14,79,74,65,0.00,40.00,13,-9,21,0.00
2013-2-22,25,23,23,25,20,18,97,88,80,0.00,40.00,14,10,25,5.07
2013-2-26,33,33,32,33,32,29,99,97,86,0.00,40.00,15,9,27,11.81
2013-3-1,29,28,26,21,20,19,76,73,72,0.00,40.00,7,4,16,0.00
2013-3-2,27,26,26,20,20,19,77,76,76,0.00,40.00,7,3,11,0.00
2013-3-29,55,48,36,25,22,18,58,36,28,0.00,40.00,9,-26,14,0.00
2013-3-30,35,35,35,24,24,23,63,62,60,0.00,40.00,1,0,6,0.00
2013-4-3,47,40,33,19,15,14,50,36,28,0.00,40.00,10,5,20,0.00
2013-4-8,72,64,54,59,52,45,92,65,51,0.00,40.00,16,8,29,4.53
2013-4-9,58,52,49,46,44,42,89,76,62,0.00,40.00,9,-6,17,0.00
2013-4-15,70,67,62,52,50,48,63,54,47,0.00,40.00,13,8,24,0.00
2013-4-18,80,63,59,62,60,59,98,91,52,0.00,40.00,16,6,31,1.65
2013-4-19,59,59,59,59,58,58,98,98,98,0.00,40.00,5,2,10,0.00
2013-6-27,71,69,68,70,68,67,96,95,94,0.00,40.00,6,2,12,0.00
2013-6-28,69,67,65,68,66,65,97,97,96,0.00,40.00,4,1,7,0.00
2013-11-27,29,26,20,15,12,10,65,55,47,0.00,40.00,15,8,24,0.00
2013-11-28,29,25,20,21,15,11,81,64,55,0.00,40.00,8,3,13,0.00
2013-11-29,38,30,24,22,19,16,79,64,41,0.00,40.00,5,2,10,0.00
2013-11-30,39,30,28,26,22,20,77,70,58,0.00,40.00,7,4,13,0.00
2013-12-5,62,44,32,57,37,23,89,76,66,0.00,40.00,14,8,24,0.00
2013-12-6,32,29,24,23,20,15,72,68,63,0.00,40.00,7,4,13,0.00
2013-12-7,28,22,17,16,10,-100,73,62,50,0.00,40.00,9,4,15,0.00
2013-12-8,30,22,15,28,18,9,98,82,71,0.00,40.00,11,5,19,0.00
2013-12-9,30,27,20,30,22,12,99,83,69,0.00,40.00,17,8,29,1.10
2013-12-10,25,19,12,12,8,2,77,62,42,0.00,40.00,15,8,31,0.00
2013-12-11,26,19,12,20,12,7,89,76,65,0.00,40.00,9,5,17,1.65
2013-12-12,18,14,6,9,4,-4,89,68,44,0.00,40.00,10,5,21,0.00
2013-12-13,35,24,17,24,15,8,85,68,57,0.00,40.00,9,4,15,0.00
2013-12-14,27,23,21,25,21,-100,98,95,88,0.00,40.00,9,5,16,18.94
2013-12-21,56,40,34,56,38,-100,99,96,93,0.00,40.00,10,5,17,40.46
2013-12-22,42,37,34,40,36,33,99,95,85,0.00,40.00,16,6,25,2.75
2013-12-23,35,31,22,33,25,12,91,78,64,0.00,40.00,12,7,20,0.00
2013-12-24,24,16,11,12,9,5,85,70,51,0.00,40.00,12,6,19,0.00
2013-12-25,26,21,13,24,16,11,91,82,66,0.00,40.00,10,5,20,0.55
2013-12-26,29,27,26,28,21,16,94,77,63,0.00,40.00,11,6,19,0.55
2013-12-27,40,34,29,29,26,22,77,72,65,0.00,40.00,7,4,13,0.00